Weather History for K2C8 - October, 2012

Change the Weather History Date:

Thursday, October 11, 2012

  Actual Average (KGAF) Record (KGAF)
Temperature  
Mean Temperature 33 °F -  
Max Temperature 42 °F 57 °F 77 °F (1955)
Min Temperature 24 °F 37 °F 23 °F (1970)
Degree Days  
Heating Degree Days 32    
Moisture  
Dew Point 25 °F    
Average Humidity 69    
Maximum Humidity 93    
Minimum Humidity 45    
Precipitation  
Precipitation 0.00 in - - ()
Sea Level Pressure  
Sea Level Pressure 30.22 in    
Wind  
Wind Speed 10 mph (NW)    
Max Wind Speed 18 mph    
Max Gust Speed 26 mph    
Visibility 10 miles    
Events      
Averages and records for this station are not official NWS values.
T = Trace of Precipitation, MM = Missing Value Source: NWS Daily Summary

Daily Weather History Graph

Daily Weather History Graph

Search for Another Location

Airport or City:

Trip Planner

Search our weather history database for the weather conditions in past years. The results will help you decide how hot, cold, wet, or windy it might be!

Date:

Astronomy

Oct. 11, 2012 Rise Set
Actual Time 7:45 AM CDT 6:47 PM CDT
Civil Twilight 7:13 AM CDT 7:19 PM CDT
Nautical Twilight 6:37 AM CDT 7:55 PM CDT
Astronomical Twilight 6:00 AM CDT 8:32 PM CDT
Moon 3:05 AM CDT (10/11) 4:41 PM CDT (10/11)
Length of Visible Light 12h 05m
Length of Day
11h 02m
Waning Crescent, 18% of the Moon is Illuminated
Oct 11
Waning Crescent
Oct 15
New
Oct 21
First Quarter
Oct 29
Full
Nov 6
Last Quarter

Hourly Weather History & Observations

Time (CDT) Temp. Windchill Dew Point Humidity Pressure Visibility Wind Dir Wind Speed Gust Speed Precip Events Conditions
12:15 AM 37.4 °F 29.8 °F 32.0 °F 81% 29.99 in 10.0 mi NNW 11.5 mph - N/A   Overcast
12:35 AM 37.4 °F 30.8 °F 32.0 °F 81% 30.00 in 10.0 mi NNW 9.2 mph - N/A   Overcast
12:55 AM 37.4 °F 30.3 °F 30.2 °F 75% 30.00 in 10.0 mi NNW 10.4 mph - N/A   Overcast
1:15 AM 37.4 °F 30.8 °F 30.2 °F 75% 30.01 in 10.0 mi NNW 9.2 mph - N/A   Overcast
1:35 AM 37.4 °F 31.4 °F 30.2 °F 75% 30.01 in 10.0 mi NNW 8.1 mph - N/A   Overcast
1:55 AM 37.4 °F 30.8 °F 28.4 °F 70% 30.02 in 10.0 mi NNW 9.2 mph - N/A   Overcast
2:15 AM 35.6 °F 28.6 °F 26.6 °F 70% 30.03 in 10.0 mi NNW 9.2 mph - N/A   Scattered Clouds
2:55 AM 35.6 °F 28.0 °F 26.6 °F 70% 30.05 in 10.0 mi NW 10.4 mph - N/A   Clear
3:15 AM 33.8 °F 26.4 °F 26.6 °F 75% 30.06 in 10.0 mi NW 9.2 mph - N/A   Clear
3:35 AM 32.0 °F 24.2 °F 26.6 °F 80% 30.06 in 10.0 mi WNW 9.2 mph - N/A   Clear
3:55 AM 32.0 °F 24.2 °F 26.6 °F 80% 30.07 in 10.0 mi NW 9.2 mph - N/A   Clear
4:15 AM 32.0 °F 23.6 °F 26.6 °F 80% 30.08 in 10.0 mi NW 10.4 mph - N/A   Clear
4:35 AM 32.0 °F 24.2 °F 26.6 °F 80% 30.08 in 10.0 mi NW 9.2 mph - N/A   Clear
4:55 AM 32.0 °F 23.6 °F 26.6 °F 80% 30.09 in 10.0 mi NW 10.4 mph - N/A   Clear
5:15 AM 32.0 °F 23.6 °F 24.8 °F 75% 30.10 in 10.0 mi NW 10.4 mph - N/A   Clear
5:35 AM 32.0 °F 22.5 °F 24.8 °F 75% 30.11 in 10.0 mi NW 12.7 mph - N/A   Clear
5:55 AM 32.0 °F 23.6 °F 24.8 °F 75% 30.12 in 10.0 mi NW 10.4 mph 17.3 mph N/A   Clear
6:15 AM 32.0 °F 23.0 °F 24.8 °F 75% 30.12 in 10.0 mi NW 11.5 mph - N/A   Clear
6:35 AM 32.0 °F 23.6 °F 24.8 °F 75% 30.13 in 10.0 mi WNW 10.4 mph - N/A   Clear
6:55 AM 32.0 °F 24.2 °F 24.8 °F 75% 30.14 in 10.0 mi WNW 9.2 mph - N/A   Clear
7:15 AM 32.0 °F 23.6 °F 24.8 °F 75% 30.14 in 10.0 mi NW 10.4 mph - N/A   Clear
7:35 AM 32.0 °F 23.6 °F 23.0 °F 69% 30.15 in 10.0 mi NW 10.4 mph - N/A   Clear
7:55 AM 32.0 °F 23.0 °F 23.0 °F 69% 30.16 in 10.0 mi NW 11.5 mph 17.3 mph N/A   Clear
8:15 AM 32.0 °F 23.0 °F 23.0 °F 69% 30.18 in 10.0 mi NW 11.5 mph - N/A   Clear
8:35 AM 32.0 °F 22.5 °F 23.0 °F 69% 30.19 in 10.0 mi NW 12.7 mph - N/A   Clear
8:55 AM 32.0 °F 22.5 °F 24.8 °F 75% 30.20 in 10.0 mi NW 12.7 mph - N/A   Clear
9:15 AM 33.8 °F 24.3 °F 24.8 °F 70% 30.21 in 10.0 mi NW 13.8 mph 18.4 mph N/A   Clear
9:35 AM 33.8 °F 23.9 °F 24.8 °F 70% 30.22 in 10.0 mi NW 15.0 mph 20.7 mph N/A   Clear
9:55 AM 35.6 °F 25.9 °F 24.8 °F 65% 30.22 in 10.0 mi NNW 16.1 mph 19.6 mph N/A   Clear
10:15 AM 35.6 °F 25.5 °F 24.8 °F 65% 30.23 in 10.0 mi NW 17.3 mph 24.2 mph N/A   Clear
10:35 AM 37.4 °F 28.5 °F 24.8 °F 60% 30.24 in 10.0 mi NNW 15.0 mph 20.7 mph N/A   Clear
10:55 AM 37.4 °F 28.5 °F 24.8 °F 60% 30.25 in 10.0 mi NNW 15.0 mph 20.7 mph N/A   Clear
11:15 AM 37.4 °F 28.5 °F 24.8 °F 60% 30.25 in 10.0 mi NNW 15.0 mph 23.0 mph N/A   Clear
11:35 AM 37.4 °F 27.5 °F 24.8 °F 60% 30.26 in 10.0 mi NNW 18.4 mph 23.0 mph N/A   Scattered Clouds
11:55 AM 39.2 °F 30.2 °F 24.8 °F 56% 30.27 in 10.0 mi NNW 17.3 mph 24.2 mph N/A   Scattered Clouds
12:15 PM 37.4 °F 27.8 °F 24.8 °F 60% 30.28 in 10.0 mi NNW 17.3 mph 20.7 mph N/A   Scattered Clouds
12:55 PM 39.2 °F 30.8 °F 24.8 °F 56% 30.28 in 10.0 mi NNW 15.0 mph - N/A   Mostly Cloudy
1:15 PM 39.2 °F 30.2 °F 24.8 °F 56% 30.28 in 10.0 mi NNW 17.3 mph 24.2 mph N/A   Mostly Cloudy
1:35 PM 39.2 °F 32.0 °F 24.8 °F 56% 30.28 in 10.0 mi NW 11.5 mph 26.5 mph N/A   Mostly Cloudy
1:55 PM 41.0 °F 34.3 °F 24.8 °F 53% 30.28 in 10.0 mi NNW 11.5 mph - N/A   Mostly Cloudy
2:15 PM 41.0 °F 33.1 °F 24.8 °F 53% 30.28 in 10.0 mi NNW 15.0 mph - N/A   Mostly Cloudy
2:35 PM 41.0 °F 34.3 °F 24.8 °F 53% 30.28 in 10.0 mi NNW 11.5 mph 19.6 mph N/A   Scattered Clouds
2:55 PM 41.0 °F 33.5 °F 24.8 °F 53% 30.29 in 10.0 mi NW 13.8 mph 20.7 mph N/A   Scattered Clouds
3:15 PM 41.0 °F 32.5 °F 24.8 °F 53% 30.29 in 10.0 mi NW 17.3 mph - N/A   Partly Cloudy
3:55 PM 42.8 °F 35.8 °F 23.0 °F 46% 30.30 in 10.0 mi NW 13.8 mph 17.3 mph N/A   Partly Cloudy
4:15 PM 42.8 °F 37.0 °F 24.8 °F 49% 30.31 in 10.0 mi North 10.4 mph 17.3 mph N/A   Partly Cloudy
4:35 PM 42.8 °F 36.6 °F 24.8 °F 49% 30.31 in 10.0 mi NNW 11.5 mph - N/A   Clear
5:15 PM 41.0 °F 34.7 °F 21.2 °F 45% 30.32 in 10.0 mi North 10.4 mph - N/A   Clear
5:35 PM 41.0 °F 34.7 °F 23.0 °F 49% 30.32 in 10.0 mi NNW 10.4 mph 16.1 mph N/A   Clear
5:55 PM 41.0 °F 34.7 °F 23.0 °F 49% 30.32 in 10.0 mi NNW 10.4 mph - N/A   Clear
6:35 PM 39.2 °F 35.9 °F 23.0 °F 52% 30.33 in 10.0 mi North 4.6 mph - N/A   Clear
6:55 PM 37.4 °F 33.8 °F 24.8 °F 60% 30.33 in 10.0 mi North 4.6 mph - N/A   Clear
7:15 PM 35.6 °F 32.8 °F 23.0 °F 60% 30.34 in 10.0 mi NNW 3.5 mph - N/A   Clear
7:35 PM 32.0 °F - 24.8 °F 75% 30.34 in 10.0 mi Calm Calm - N/A   Clear
8:15 PM 32.0 °F - 24.8 °F 75% 30.35 in 10.0 mi Calm Calm - N/A   Clear
8:35 PM 28.4 °F 24.6 °F 24.8 °F 86% 30.35 in 10.0 mi South 3.5 mph - N/A   Clear
8:55 PM 26.6 °F 22.6 °F 24.8 °F 93% 30.35 in 10.0 mi SSW 3.5 mph - N/A   Clear
9:15 PM 26.6 °F - 24.8 °F 93% 30.36 in 10.0 mi Calm Calm - N/A   Clear
9:55 PM 26.6 °F 22.6 °F 23.0 °F 86% 30.36 in 10.0 mi SW 3.5 mph - N/A   Clear
10:15 PM 26.6 °F - 23.0 °F 86% 30.36 in 10.0 mi Calm Calm - N/A   Clear
10:55 PM 24.8 °F 20.5 °F 23.0 °F 93% 30.36 in 10.0 mi SSW 3.5 mph - N/A   Clear
11:15 PM 26.6 °F 22.6 °F 23.0 °F 86% 30.36 in 10.0 mi South 3.5 mph - N/A   Clear
11:35 PM 24.8 °F 19.1 °F 23.0 °F 93% 30.36 in 10.0 mi SSW 4.6 mph - N/A   Clear
11:55 PM 24.8 °F 20.5 °F 23.0 °F 93% 30.36 in 10.0 mi SW 3.5 mph - N/A   Clear